Temp
16 16 16 16 15 15 16 17 17 18 18 19 19 19 19 20 20 19 19 19 19 18 18 18 18 18 18 18 18 18 18 18 18 18 18 18 18 18 18 18 18 18 18 17 17 17 17 17 17 17 17 17 17 17 17 18 18 18 18 19 19 19 19 19 18 17 17 18 18 17 17 16 16 16 16 15 15 15 15 14 15 15 15 15 15
15 15 15 15 16 16 16 17 18 18 18 19 19 19 19 20 19 19 19 19 18 18 18 18 18 18 18 18 18 18 18 18 18 18 18 18 18 18 18 18 18 18 18 18 18 18 18 18 17 17 17 17 17 17 17 18 18 18 19 19 19 19 19 19 19 17 16 16 17 17 16 16 16 16 16 15 15 15 15 14 14 15 15 15 15
14 15 15 16 16 16 17 17 17 17 18 19 19 19 19 19 19 19 19 18 18 18 18 18 18 18 18 18 18 18 18 18 18 18 18 18 18 18 18 18 18 18 18 18 18 18 18 18 17 17 17 17 17 17 17 18 18 18 19 19 19 19 19 20 19 18 16 16 16 16 16 16 16 16 16 16 16 15 15 15 15 15 15 15 15
14 14 15 16 16 16 16 17 17 17 18 18 18 19 19 19 19 19 19 18 18 19 19 19 19 19 19 19 19 19 18 18 18 18 18 18 18 18 18 19 19 19 18 18 18 18 18 18 17 17 17 17 17 17 17 17 17 18 18 18 19 19 19 20 20 19 17 16 16 17 16 16 16 16 16 16 16 15 15 15 15 15 15 15 15
15 15 15 15 15 15 16 17 17 18 18 17 18 19 19 19 19 19 19 19 19 19 19 19 19 19 19 19 19 19 19 18 18 19 19 19 19 19 19 19 19 19 19 19 19 18 18 18 18 17 17 17 17 17 17 17 17 18 18 18 19 19 19 19 20 20 18 17 16 16 17 17 16 16 16 16 16 15 15 15 15 15 15 15 15
15 15 15 14 14 15 16 16 17 16 16 16 17 19 19 19 19 19 19 19 19 19 19 19 19 19 19 19 19 19 19 19 18 19 19 19 19 19 19 19 19 19 19 19 18 18 18 18 18 17 17 17 17 17 17 17 17 18 18 18 19 19 19 19 20 19 19 18 17 17 17 17 17 16 16 16 16 16 15 15 15 15 15 15 15
14 14 14 14 14 15 16 16 16 15 15 16 17 18 19 18 19 19 19 19 19 19 19 19 19 19 19 19 19 19 19 18 18 19 19 19 19 19 19 19 19 19 19 19 18 18 18 18 18 17 17 17 17 17 17 17 18 18 18 19 19 19 19 19 19 19 19 18 17 17 18 18 17 17 17 17 17 17 16 15 15 15 15 16 16
14 14 14 14 14 14 15 16 15 15 15 16 17 18 19 18 19 19 19 19 19 19 19 19 19 19 19 19 19 19 19 18 18 18 19 19 19 19 19 19 19 19 19 19 18 18 18 18 18 17 17 17 17 17 17 18 18 18 18 19 19 19 19 19 19 19 19 19 18 18 18 18 18 18 17 16 16 16 16 16 16 16 16 16 16
14 14 14 14 14 14 14 15 15 14 15 16 16 18 18 18 18 18 18 19 19 19 19 19 19 18 18 18 18 18 18 18 18 18 18 18 18 18 19 19 19 19 19 18 18 18 18 18 18 17 17 17 17 17 17 18 18 18 18 19 19 19 19 19 19 19 19 19 18 18 18 18 18 18 17 16 16 17 17 17 17 17 17 17 17
14 14 14 13 14 14 14 15 14 14 15 15 16 17 18 18 18 18 18 19 19 19 18 18 18 18 18 18 18 18 18 18 18 18 18 18 18 18 18 18 18 19 19 18 18 18 18 18 18 17 17 17 17 17 17 18 18 18 18 19 19 19 19 19 19 19 18 18 18 18 18 17 18 18 18 17 18 18 17 17 16 17 17 16 16
12 13 14 14 14 14 14 14 14 14 14 15 15 17 18 18 18 18 18 18 18 18 18 17 17 17 17 17 17 17 17 17 17 17 17 18 18 18 18 18 18 19 18 18 18 18 18 18 18 17 17 17 17 17 17 17 18 18 18 18 18 19 19 18 18 18 18 18 18 18 18 18 18 18 18 19 18 18 17 17 17 17 16 16 15
10 11 13 13 14 14 14 14 14 14 14 15 16 17 17 17 17 17 17 17 17 17 17 17 17 17 17 17 17 17 17 17 17 17 17 17 18 18 18 18 18 18 18 18 18 18 18 18 18 17 17 16 17 17 17 17 17 17 18 18 18 18 18 18 18 18 18 18 18 18 18 18 18 18 18 18 19 18 18 17 17 17 17 16 16
8 9 11 12 13 13 13 13 13 13 14 14 15 16 17 17 17 17 16 16 17 16 16 16 16 16 17 17 16 16 16 16 16 17 17 17 17 17 17 18 18 18 18 18 18 17 17 17 17 17 17 17 17 17 17 17 17 17 17 18 18 18 18 18 18 18 18 18 18 18 18 18 18 18 17 17 18 18 18 18 18 18 18 18 18
6 7 9 10 11 12 13 13 13 13 14 14 14 15 16 15 15 16 16 16 16 16 15 16 16 16 16 16 16 15 15 15 16 16 17 17 17 17 17 17 17 17 17 17 17 17 17 17 17 16 16 17 17 17 17 17 17 17 17 17 17 18 17 17 18 18 18 18 18 18 18 17 17 18 17 17 17 17 17 17 17 18 18 18 18
6 6 7 8 8 10 11 12 13 13 13 14 14 14 14 14 14 14 15 15 15 15 15 15 15 15 15 15 15 15 14 14 15 16 16 17 17 17 17 16 17 17 17 17 17 17 16 16 16 16 16 16 16 16 16 17 17 17 16 17 17 17 17 17 17 17 17 17 17 17 17 17 17 17 17 17 17 17 17 17 17 17 17 17 18
7 6 6 6 7 8 9 10 11 11 12 12 13 13 13 13 13 14 14 14 14 14 14 14 14 14 14 14 14 14 13 14 14 15 15 16 16 16 16 16 16 16 16 16 16 16 16 16 15 15 15 15 15 15 15 16 16 16 16 16 16 16 16 16 16 16 16 16 16 16 16 16 16 16 16 16 16 16 16 16 16 17 16 16 16
6 6 6 6 6 7 7 8 9 10 11 11 11 11 11 12 12 13 13 13 13 13 12 12 12 12 13 13 13 13 13 13 14 14 15 15 16 16 16 16 15 15 15 15 15 15 14 14 14 14 14 14 14 14 14 15 15 15 15 15 15 15 15 15 15 15 15 15 15 15 15 15 15 15 15 15 15 15 15 15 15 16 15 15 14
5 6 6 6 6 7 7 7 8 9 9 9 10 10 10 11 12 12 12 12 11 11 11 11 11 11 12 12 12 12 12 12 13 14 14 15 15 15 15 15 14 14 13 13 14 13 13 13 13 13 13 13 13 13 14 14 14 14 14 14 14 14 14 14 14 14 14 14 14 14 14 14 14 14 15 15 14 14 14 14 15 15 14 13 13
5 5 5 6 6 7 7 7 7 8 8 8 9 9 9 10 11 11 11 11 10 10 11 11 10 10 10 10 11 11 11 12 12 13 14 14 14 14 14 14 13 12 12 12 12 12 12 12 12 12 12 12 12 12 13 13 13 13 13 13 13 13 13 13 13 14 14 14 14 14 14 14 14 14 14 14 14 14 13 13 14 13 13 12 12
6 6 6 6 6 7 7 7 7 7 8 8 8 8 8 9 9 10 10 10 10 10 10 10 10 9 9 9 10 10 11 11 11 12 13 13 13 13 13 13 12 11 11 11 11 11 11 11 11 11 11 11 11 12 12 12 12 12 12 12 12 12 12 13 13 13 13 13 13 14 14 14 14 14 14 14 13 13 13 13 13 13 12 12 12
6 6 6 6 6 7 7 7 7 7 7 8 8 8 8 8 8 9 9 9 9 9 9 9 9 9 8 9 9 9 9 10 10 11 12 12 12 13 12 11 11 11 11 10 10 10 9 10 10 10 11 11 11 11 12 12 12 12 12 12 12 12 12 12 12 12 12 12 12 12 12 12 12 12 12 12 12 12 12 12 12 12 12 12 12
6 7 7 7 7 7 7 7 7 7 7 8 8 8 8 8 8 9 8 8 9 9 9 9 9 8 8 8 8 8 8 9 9 10 10 11 11 11 11 10 10 10 10 10 10 9 9 9 10 10 10 11 11 11 11 11 11 11 11 11 10 10 10 10 10 10 10 10 10 10 10 10 10 10 10 10 10 10 11 11 11 12 11 11 11
6 7 7 7 7 7 7 7 7 7 8 8 7 7 8 8 8 9 9 9 9 9 9 9 9 8 8 7 7 8 8 9 9 10 10 10 10 10 9 9 9 9 9 9 9 9 9 9 10 10 10 10 10 10 10 10 10 9 9 9 9 9 9 9 9 9 9 9 9 9 9 9 9 9 9 9 9 9 10 10 10 11 11 11 10
7 7 7 7 7 8 8 8 8 8 8 8 8 8 8 8 8 9 9 9 9 9 9 9 9 8 7 7 7 7 8 9 9 9 9 9 8 8 8 8 8 8 8 8 8 9 9 9 10 10 10 10 10 9 9 9 9 9 8 8 9 9 9 9 9 9 9 9 9 9 9 9 9 9 9 9 9 9 9 9 9 10 10 10 10
7 7 7 7 7 7 8 8 8 8 9 9 9 9 9 9 9 9 9 9 10 10 10 9 9 8 7 6 6 6 8 8 8 8 8 8 8 8 7 7 7 8 8 8 8 8 8 9 9 9 10 9 9 9 9 9 8 8 8 8 8 8 8 8 8 8 9 9 8 8 8 8 8 8 8 8 8 8 9 8 8 9 9 9 9
6 7 7 7 7 7 7 7 7 8 8 8 8 8 9 9 9 9 9 9 9 9 9 9 9 8 7 6 6 6 7 8 8 8 9 8 8 8 7 7 7 7 7 7 8 8 8 9 9 9 9 9 9 9 9 8 8 8 8 8 8 8 8 8 8 8 8 8 8 8 8 8 8 8 8 8 8 8 7 7 7 7 8 8 8
6 7 7 7 7 7 7 7 7 7 7 8 8 9 8 9 9 9 9 9 9 9 9 8 7 7 6 6 7 7 8 8 9 9 9 8 8 8 7 7 7 7 8 8 8 8 8 9 9 9 9 9 8 8 8 8 8 7 7 7 7 7 7 7 7 7 7 7 7 7 7 7 7 7 7 7 7 7 7 7 7 7 7 7 8
7 7 7 7 7 7 7 7 7 7 8 8 8 8 9 9 9 9 8 8 9 9 9 8 7 7 7 7 8 8 8 8 8 8 8 8 8 7 7 7 7 7 8 8 8 8 8 8 8 8 8 8 8 8 7 7 7 7 7 7 7 6 6 6 6 6 6 6 6 7 7 7 6 6 7 7 7 7 6 6 6 6 6 7 7
7 7 7 8 8 7 7 7 7 8 8 8 8 8 8 8 8 8 8 8 8 8 8 8 7 7 8 8 8 8 8 7 7 7 7 7 7 6 6 7 7 7 7 7 7 8 8 8 8 7 7 7 7 7 6 6 6 6 6 6 6 6 5 5 5 5 5 6 6 6 6 6 6 6 6 6 6 6 6 6 6 6 6 6 6
8 8 8 8 8 8 8 8 8 8 8 8 7 7 7 7 8 8 8 8 8 8 8 8 8 8 8 8 8 8 7 7 7 6 6 6 6 6 6 6 6 7 7 7 7 7 7 7 7 7 6 6 6 6 5 5 5 5 5 5 5 5 4 4 4 4 4 5 5 5 5 5 5 5 5 5 5 6 6 6 5 5 5 6 6
8 8 8 8 8 8 8 8 8 8 7 8 8 7 7 7 7 7 7 7 7 8 8 8 8 8 8 8 7 7 7 6 6 6 6 6 6 6 6 6 6 6 6 7 7 7 7 6 6 6 6 5 5 5 5 4 4 4 4 4 4 3 3 3 3 3 3 4 4 4 4 4 4 4 4 4 4 5 5 5 5 5 5 5 5
8 8 8 8 8 9 9 9 8 8 8 8 8 8 7 7 6 6 6 7 7 7 7 7 7 7 7 7 7 7 6 6 6 6 6 6 6 6 6 6 6 6 6 6 6 6 6 5 5 5 5 4 4 4 4 4 3 3 3 3 2 2 2 2 2 2 2 3 3 3 4 4 4 4 4 4 4 4 4 4 4 4 4 5 5
8 8 8 8 8 9 9 9 8 8 8 8 8 8 8 8 7 7 6 6 7 7 6 7 6 6 6 6 6 6 6 5 5 6 6 6 6 6 6 6 6 6 6 6 5 5 5 5 5 4 4 4 4 3 3 3 2 2 2 2 2 1 1 1 1 1 2 2 2 2 2 3 3 3 3 3 3 3 3 4 4 4 4 4 4
8 8 8 8 8 8 8 9 8 8 8 8 8 8 8 8 8 7 6 6 6 6 6 6 6 6 6 6 6 6 5 6 6 6 6 6 6 6 6 6 5 5 5 5 5 5 5 4 4 4 4 3 3 3 2 2 2 2 1 1 1 1 1 1 1 1 1 1 2 2 2 2 2 2 2 2 3 3 3 3 3 3 3 3 4
8 8 8 8 8 8 8 8 8 8 8 8 8 8 8 8 8 8 7 7 6 6 6 5 5 5 5 6 6 6 6 6 6 6 6 6 6 6 6 5 5 5 5 5 4 4 4 4 4 3 3 3 3 2 2 1 1 1 1 1 1 1 0 0 1 1 1 1 1 1 2 2 2 2 2 2 2 2 2 2 2 2 3 3 3
7 7 8 8 8 8 8 8 8 8 8 8 8 8 8 8 8 8 7 7 7 6 5 5 5 5 5 5 5 6 6 6 5 5 6 6 6 6 5 4 4 4 4 4 4 4 4 4 3 3 3 2 2 2 2 1 1 1 1 1 1 1 0 0 1 1 1 1 1 1 1 1 1 1 2 2 2 2 2 2 2 2 2 2 3
7 7 7 7 7 8 8 8 8 8 8 8 8 8 8 8 8 8 7 7 7 6 5 5 5 5 5 5 5 6 6 6 5 5 5 5 5 5 4 4 3 3 3 3 3 3 3 3 3 3 2 2 2 2 2 2 2 1 1 1 1 1 1 1 1 1 1 1 1 1 1 1 1 1 1 1 1 1 1 2 2 2 2 2 2
7 7 7 7 7 7 8 8 8 8 8 8 8 8 7 7 7 7 7 7 6 6 5 5 5 5 5 5 5 6 6 6 5 5 5 4 4 4 4 3 3 3 3 3 2 2 2 2 2 2 2 2 2 2 2 2 2 2 1 1 1 1 1 1 1 1 1 1 1 1 1 1 1 1 1 1 1 1 1 1 2 2 2 2 2
7 7 7 7 7 7 8 8 7 7 7 7 7 7 7 6 7 7 6 6 6 5 5 5 5 5 5 5 6 6 6 5 5 5 4 4 3 3 3 3 2 2 2 2 2 2 2 2 2 2 2 2 2 2 2 2 2 2 1 1 1 1 1 1 1 1 1 1 1 1 1 1 1 1 1 1 1 1 1 1 1 1 1 1 1
7 7 7 7 7 7 7 7 7 7 7 7 7 7 6 6 6 6 6 5 5 5 5 5 5 5 5 5 5 5 5 4 4 4 4 3 3 2 2 2 2 1 1 1 1 1 1 1 1 1 1 2 2 2 2 2 2 2 2 2 1 1 1 1 1 1 1 1 1 1 1 1 1 1 1 1 0 1 1 1 1 1 1 1 1
7 7 7 7 7 7 7 7 7 7 7 6 6 6 6 5 5 6 6 5 5 5 5 5 5 5 5 5 5 4 4 4 3 3 3 3 2 2 2 2 1 1 1 1 1 1 1 0 1 1 2 2 2 2 2 2 2 2 2 2 1 1 1 1 1 1 1 1 1 1 1 1 1 1 1 1 1 1 1 1 1 1 1 1 1
6 7 7 7 7 7 7 7 6 6 6 6 6 6 5 5 5 5 5 5 5 5 5 5 5 5 5 5 4 4 4 4 3 3 2 2 2 2 2 1 1 1 1 1 1 1 0 0 0 1 2 2 2 2 2 2 2 2 2 2 1 1 1 1 1 1 1 1 1 1 1 1 1 1 1 1 1 1 1 1 1 1 1 1 1
6 6 6 7 7 7 7 6 6 6 6 6 5 5 5 5 5 5 5 5 5 5 5 5 5 4 4 4 4 4 4 3 3 3 2 2 2 1 1 1 1 1 1 1 1 1 0 0 1 1 1 2 2 2 2 2 2 2 2 2 1 1 1 1 1 1 1 1 1 1 1 1 1 1 1 1 1 1 1 1 1 1 1 1 1
6 6 6 6 6 6 7 7 6 6 6 5 5 5 5 5 4 5 5 5 5 4 4 4 4 4 4 4 3 3 3 3 2 2 2 2 2 1 1 1 1 1 1 1 1 0 0 0 1 1 1 1 1 2 2 2 2 2 2 2 1 1 1 1 1 1 1 1 1 1 1 1 1 1 1 1 1 1 1 1 1 1 1 1 1
6 6 6 6 6 6 6 6 6 6 5 5 5 5 5 4 4 5 5 5 4 4 4 4 4 4 4 3 3 3 3 3 2 2 2 1 1 1 1 1 1 1 1 1 1 0 0 1 1 1 1 1 1 2 2 2 2 2 2 2 1 1 1 1 1 1 1 1 1 1 1 1 1 1 1 1 1 1 1 1 1 1 1 1 2
6 6 6 6 6 6 6 6 6 5 5 5 5 4 4 4 4 4 4 4 4 4 4 4 4 4 3 3 3 3 3 3 2 2 2 2 1 1 1 1 1 1 1 1 1 1 1 1 1 1 1 1 1 1 1 1 1 1 2 1 1 1 1 1 1 1 1 1 1 1 1 1 1 1 1 1 1 1 1 1 2 2 2 2 2
6 6 6 6 6 6 5 5 5 5 5 5 5 4 4 4 4 4 4 4 4 4 4 4 4 3 3 3 3 3 3 3 3 3 2 2 2 1 1 1 1 1 1 1 1 1 1 1 1 1 1 1 1 1 1 1 1 1 1 1 1 1 1 1 1 1 1 1 1 1 1 1 1 1 1 1 2 1 1 2 2 2 2 2 2
5 6 6 6 6 6 6 5 5 5 5 5 5 4 4 4 4 4 4 4 4 4 4 4 3 3 3 3 3 3 3 3 3 3 2 2 2 1 1 1 1 1 1 1 1 1 1 1 1 1 1 1 1 1 1 1 1 1 1 1 1 1 1 1 1 1 1 1 2 2 1 1 1 1 1 2 2 2 2 2 2 2 2 2 2
5 6 6 5 6 6 6 5 5 6 5 5 5 5 4 4 4 4 4 4 4 4 4 3 3 3 3 3 3 3 3 3 3 2 2 2 2 1 1 1 1 1 1 1 1 1 1 1 1 1 1 1 1 1 1 1 1 1 1 1 1 1 1 1 1 1 1 1 2 2 1 1 2 1 1 2 2 2 2 2 2 2 2 2 2
6 6 6 6 6 6 6 6 6 6 6 5 5 5 5 5 4 4 4 4 4 4 4 3 3 3 3 3 3 3 3 3 3 2 2 2 2 2 1 1 1 1 1 1 1 1 0 0 0 1 1 1 1 1 1 1 0 0 1 1 1 1 1 1 1 1 1 1 2 2 1 2 2 1 1 2 2 2 2 2 2 2 2 2 2
6 6 6 6 6 7 7 6 6 6 6 5 5 5 5 5 5 4 4 4 4 4 4 4 3 3 3 3 3 3 3 3 3 3 2 2 2 2 2 1 1 1 1 1 1 1 1 0 0 1 1 1 1 0 0 0 0 0 0 0 0 0 1 1 1 1 1 1 2 1 1 1 1 1 1 1 2 2 2 2 2 2 2 2 3
Height
780 778 778 779 781 782 784 785 785 786 787 789 790 792 794 795 796 799 801 805 807 810 812 814 816 818 819 821 822 824 825 826 827 828 828 829 830 831 832 833 834 835 836 838 839 840 840 840 842 842 843 844 844 845 845 846 847 847 848 849 850 851 851 852 853 856 859 859 860 862 864 865 867 868 870 871 873 874 875 876 877 877 877 878 878
774 774 776 778 780 782 784 784 785 786 787 788 790 792 794 794 795 798 801 804 807 809 812 813 815 817 818 820 821 823 824 825 826 827 828 829 829 830 831 832 833 834 835 837 838 838 839 839 840 841 842 843 844 844 844 845 845 846 847 847 849 850 851 851 852 854 857 859 859 861 863 864 865 867 869 870 871 872 874 874 875 876 877 877 877
774 775 777 778 778 780 782 783 784 785 786 787 789 791 791 792 794 798 801 804 807 809 811 813 815 816 818 819 820 822 823 824 825 826 827 828 829 829 831 832 833 834 834 836 837 837 838 838 839 840 841 842 843 843 843 844 844 845 846 846 848 849 851 851 851 853 855 858 859 860 862 863 864 865 867 869 870 871 872 873 874 875 875 876 876
774 777 777 778 778 779 780 782 783 785 785 786 788 788 789 791 794 797 800 804 807 809 811 812 814 816 817 818 820 821 823 824 825 826 827 827 828 829 830 831 832 833 834 835 836 837 837 838 838 839 840 840 841 842 843 843 844 844 845 846 847 848 850 850 850 851 853 856 858 859 860 862 863 864 866 868 869 870 871 871 872 873 873 874 874
773 775 776 777 780 781 782 782 783 784 785 786 786 786 787 791 794 797 801 804 807 809 811 812 813 815 816 818 819 821 822 824 824 825 826 827 828 829 830 831 831 833 834 834 835 836 837 837 837 838 838 839 840 842 843 843 843 843 844 845 846 847 849 849 849 850 851 854 857 859 860 861 862 863 864 866 868 869 870 870 871 871 871 872 872
772 773 774 776 779 781 781 782 782 783 786 788 786 785 787 790 794 798 801 804 807 809 810 812 813 814 816 817 819 820 822 823 824 824 826 827 828 829 830 830 831 832 833 834 835 836 836 836 836 836 837 838 839 840 841 842 842 843 844 845 846 847 847 848 848 849 850 852 855 857 859 860 861 862 863 864 866 867 868 869 869 869 869 869 869
772 773 774 774 776 777 776 779 782 785 789 791 788 785 787 791 795 799 802 804 806 808 810 811 813 814 815 816 818 819 821 822 823 824 825 826 827 828 829 830 831 832 833 833 834 835 835 836 836 836 836 837 838 839 840 841 841 842 843 844 845 846 846 846 847 848 850 852 854 856 857 859 860 860 861 862 864 865 866 866 866 866 866 866 866
772 773 774 774 775 775 775 777 781 786 790 792 790 787 788 793 796 799 802 804 806 808 810 811 811 813 814 815 817 819 820 822 823 824 825 826 827 828 829 831 831 832 833 833 834 835 835 836 835 835 836 836 837 839 839 840 841 841 842 843 844 845 845 845 847 848 850 851 853 855 856 857 858 859 860 862 863 863 863 863 863 862 863 862 862
771 772 774 774 774 775 776 777 781 786 789 790 790 789 790 794 797 799 801 804 806 808 810 810 810 812 813 815 816 818 820 821 822 824 825 826 827 828 829 831 831 832 833 833 834 834 835 835 835 835 836 836 838 839 839 840 840 841 842 842 843 844 845 846 847 848 849 850 852 853 854 855 857 858 859 859 860 860 860 861 860 860 860 860 859
770 771 772 772 773 774 776 778 782 786 786 788 791 791 792 794 797 799 801 803 806 808 809 809 810 811 813 814 816 818 819 821 823 824 825 826 827 828 829 830 831 832 833 833 833 834 835 835 835 835 836 837 838 839 839 840 840 841 842 842 842 843 844 846 847 848 849 850 851 852 853 854 854 855 856 856 856 856 857 858 858 858 859 858 858
770 770 769 769 770 773 775 778 782 785 786 789 793 793 792 794 796 799 801 802 805 807 808 809 810 811 813 814 816 817 819 821 823 824 825 826 827 828 829 830 831 832 833 833 833 834 834 835 835 836 836 837 838 839 840 840 840 841 842 842 842 843 844 845 847 848 849 850 851 851 852 852 853 854 854 854 854 855 855 856 856 856 857 856 856
773 771 769 769 769 772 775 778 782 785 787 790 792 791 791 793 795 799 801 801 805 808 810 810 810 811 813 814 816 818 819 821 822 824 825 826 827 828 830 831 832 832 833 832 833 834 834 835 835 836 837 838 838 839 840 840 841 841 842 842 843 843 844 845 846 847 848 849 849 850 851 852 852 853 853 853 853 854 854 855 855 854 854 853 852
778 775 773 773 771 772 775 778 782 785 787 791 792 789 790 793 795 799 802 802 804 808 810 811 811 812 813 815 817 818 820 821 823 824 826 827 828 829 830 831 832 833 833 833 834 834 835 835 835 836 837 838 839 839 839 840 841 841 842 842 843 844 844 845 846 846 847 847 848 849 850 850 851 851 852 852 852 852 852 852 852 851 850 849 848
782 780 778 777 775 775 776 779 782 784 787 792 792 789 790 793 796 800 801 801 804 808 810 811 812 813 814 815 817 819 820 822 823 824 826 827 828 829 831 832 832 833 833 833 834 835 835 836 836 837 838 838 839 839 839 840 841 841 842 842 843 844 844 845 846 846 846 847 847 848 848 849 850 850 851 851 850 850 850 849 849 848 847 846 845
786 785 782 781 780 780 779 780 782 785 788 791 792 791 792 794 797 800 799 800 805 809 811 812 812 814 815 816 818 819 821 822 823 825 826 827 828 829 831 832 833 833 833 833 834 835 836 836 836 837 838 838 839 839 839 840 840 841 841 842 842 843 843 844 845 845 845 846 846 846 847 847 848 849 849 849 849 849 848 847 847 846 845 844 843
790 790 788 787 787 785 783 782 783 785 788 790 791 793 794 796 799 799 798 801 807 810 811 813 814 815 816 817 819 820 822 823 824 825 826 827 828 829 830 832 832 833 833 833 834 835 836 836 837 837 838 839 839 840 840 840 840 841 841 842 842 843 843 844 844 844 844 845 845 845 845 845 846 846 846 847 846 846 846 844 844 844 843 842 841
794 795 794 794 792 789 787 785 784 787 790 791 793 796 797 799 801 800 799 804 809 811 812 814 815 816 817 819 820 821 822 824 825 826 827 828 828 829 830 831 831 832 833 834 834 835 836 836 837 837 838 839 840 840 841 841 841 841 841 842 842 842 843 843 844 844 844 844 844 844 844 844 844 844 844 844 844 844 843 841 841 841 840 839 838
800 799 800 800 797 794 792 790 789 789 792 794 797 799 800 801 802 802 802 806 810 812 813 815 816 818 819 820 822 822 823 825 826 826 827 828 829 830 830 831 831 833 834 834 835 835 836 836 836 837 838 839 840 840 840 840 840 841 841 841 842 842 842 842 842 842 842 843 843 843 843 843 843 842 842 842 842 841 840 839 838 838 837 837 836
805 804 805 804 801 798 797 796 795 794 796 798 800 802 802 803 805 805 805 808 811 813 814 815 817 818 820 821 823 824 825 827 827 827 828 829 830 831 831 831 832 834 834 835 836 836 836 837 837 838 838 839 840 840 840 840 840 841 841 841 842 842 842 842 842 841 841 841 841 841 841 841 841 841 840 840 840 840 838 837 837 836 835 834 833
811 810 809 807 805 803 802 802 801 801 803 804 805 806 806 806 806 805 806 809 812 814 816 817 818 819 821 823 825 827 828 828 828 829 829 830 830 831 831 833 834 835 835 836 836 837 837 838 838 839 839 840 840 840 841 841 841 841 842 841 841 841 841 841 841 841 840 840 839 839 839 839 839 839 839 838 838 838 837 836 835 834 833 832 831
815 814 812 810 810 809 808 808 807 807 808 809 809 810 809 808 807 806 808 811 813 815 817 818 818 820 823 826 828 829 830 829 830 830 830 830 831 831 832 834 836 836 836 837 837 837 838 838 839 839 840 840 840 840 841 841 841 841 841 841 841 840 840 840 839 839 839 839 839 838 838 838 837 837 837 836 836 835 834 833 832 831 831 830 829
819 818 816 815 814 813 813 814 813 812 812 813 813 813 812 811 811 811 812 814 815 816 819 820 821 823 826 828 830 831 832 832 831 831 831 831 831 831 832 834 835 836 836 836 837 837 838 839 839 839 839 839 840 840 840 840 840 840 840 840 840 840 839 839 839 838 838 838 838 838 837 837 837 836 835 835 834 833 832 830 830 829 828 827 827
822 820 819 818 818 818 818 818 818 817 817 818 817 817 817 817 817 817 818 818 818 819 821 823 824 825 827 829 831 832 833 833 832 831 832 832 832 832 833 834 835 835 835 836 837 837 838 838 838 839 839 839 839 839 839 840 840 840 840 840 840 840 839 839 838 838 838 838 838 838 837 837 836 836 835 834 833 832 831 829 828 827 826 825 825
823 822 821 821 821 821 822 822 822 821 821 822 821 821 822 822 821 821 822 822 822 821 822 824 825 826 828 830 832 833 833 833 833 832 833 833 833 834 834 835 835 835 836 837 838 838 837 837 838 838 839 839 839 839 839 839 840 840 840 840 840 839 838 838 838 838 837 837 837 837 837 837 836 836 835 834 833 832 830 829 827 827 825 824 823
826 825 825 825 824 825 825 825 825 824 824 825 824 824 824 824 823 823 823 823 822 822 823 824 825 827 829 831 832 833 834 833 833 833 833 834 834 835 835 835 836 836 837 837 838 838 838 837 838 838 838 839 839 839 839 839 840 840 840 840 840 839 838 838 837 837 837 837 837 837 837 837 836 836 835 834 833 831 830 828 827 826 825 823 823
830 829 829 828 828 828 828 827 828 828 827 828 827 827 826 826 825 825 824 824 824 824 824 825 826 829 832 833 833 834 834 834 833 833 833 834 834 835 835 835 836 837 837 837 838 838 838 838 838 838 838 838 838 839 839 840 840 840 841 840 840 839 839 838 838 837 837 837 837 837 837 836 836 835 834 833 832 830 829 828 827 826 825 823 822
833 832 832 831 831 831 831 831 831 831 831 831 830 829 829 828 827 826 826 826 826 826 827 828 829 831 833 834 834 834 834 834 834 834 834 834 835 835 835 835 836 836 836 837 837 838 838 838 838 839 839 839 839 839 840 840 841 841 840 840 840 839 839 839 838 838 838 838 837 837 836 836 835 834 833 832 831 830 829 827 826 826 825 823 822
836 835 834 834 833 833 833 833 834 834 833 833 832 831 830 829 828 828 828 828 829 829 829 830 832 833 834 834 835 834 834 834 834 834 834 835 835 835 835 835 836 836 836 837 838 838 838 838 838 839 839 839 840 840 840 841 840 840 840 840 839 839 839 838 838 837 837 837 837 836 835 834 834 833 832 832 831 829 828 826 825 824 823 822 821
837 837 836 835 834 834 835 835 835 835 834 833 833 833 832 832 831 831 831 831 831 832 832 832 833 834 834 835 835 835 835 835 835 835 836 836 836 836 835 836 836 837 837 838 838 838 838 838 838 839 839 839 840 840 841 841 840 840 840 839 839 839 838 838 837 837 837 836 836 835 834 834 833 832 832 831 830 829 827 826 824 823 822 821 820
839 838 837 836 836 835 835 836 836 836 835 835 834 834 834 834 834 833 833 833 834 834 834 834 834 835 835 835 835 835 836 836 836 837 838 838 838 837 837 837 838 838 839 839 839 839 839 839 840 840 840 840 841 841 841 841 840 841 840 840 840 839 838 838 838 838 838 837 836 835 834 834 833 832 831 830 829 828 827 825 823 822 821 819 818
840 840 838 838 837 836 836 836 836 836 837 836 836 836 836 836 836 836 836 836 836 836 835 836 836 836 836 836 836 836 837 838 838 839 839 839 839 838 838 839 839 840 840 840 840 840 840 840 841 841 841 841 841 841 842 841 841 842 842 841 841 840 840 839 838 838 837 837 836 835 834 833 832 831 830 829 828 827 826 824 823 822 820 819 818
841 840 839 839 838 837 837 837 837 837 838 837 837 836 836 837 837 838 838 838 838 838 837 837 837 837 837 837 838 838 838 839 840 840 840 840 840 840 840 841 841 841 842 841 841 841 842 842 842 842 842 842 842 843 843 843 843 843 843 842 842 841 841 840 839 838 837 836 835 834 833 832 831 830 829 828 827 826 825 823 822 821 820 819 818
842 841 840 839 839 838 838 838 838 838 839 839 838 838 837 837 838 838 839 839 839 839 839 839 839 839 839 839 839 839 840 840 841 841 841 841 841 842 842 842 842 842 842 842 842 842 843 843 843 843 843 844 844 844 844 844 844 844 843 843 842 842 841 840 839 838 836 835 835 834 832 831 830 829 828 827 826 825 824 822 821 820 820 819 819
843 842 841 841 840 839 839 839 839 839 839 840 839 839 839 838 838 838 839 840 840 841 841 841 841 841 841 841 841 841 842 842 843 843 842 842 842 842 842 843 843 843 843 843 843 844 844 844 844 845 845 845 845 845 845 845 845 844 844 843 843 842 841 840 839 837 836 835 834 833 832 831 829 828 828 827 826 825 824 822 821 821 820 820 820
844 843 843 842 841 841 840 840 840 840 840 840 840 840 840 840 839 839 840 840 841 841 842 842 843 843 843 843 843 843 844 844 844 844 843 842 842 842 842 843 843 843 844 844 845 845 845 845 846 846 846 846 846 846 846 846 846 845 845 844 844 843 842 840 839 838 837 835 834 833 832 831 830 830 829 828 827 826 825 824 823 823 822 822 821
846 845 844 843 843 842 842 841 841 841 841 841 842 842 841 841 840 840 840 840 841 842 843 844 845 845 845 845 845 845 845 845 845 844 844 843 843 843 843 844 844 845 846 846 846 847 847 847 847 847 848 848 848 848 848 848 848 847 847 846 844 843 842 841 840 839 838 837 836 835 835 834 833 832 831 830 829 828 827 826 826 825 824 823 823
847 846 845 844 844 843 843 843 843 843 842 843 843 843 842 842 842 842 842 841 841 843 844 845 846 846 846 846 845 845 845 846 846 845 845 845 845 845 845 846 846 847 848 848 848 848 848 848 848 849 849 850 850 850 850 850 849 848 848 846 845 844 843 842 842 841 840 840 839 839 838 837 835 834 833 832 831 830 829 828 827 827 826 825 825
847 846 846 845 844 844 844 844 844 844 844 844 844 844 844 844 844 844 844 843 843 844 845 846 846 846 846 846 846 845 845 846 847 847 846 846 846 847 847 848 848 848 849 849 849 849 849 849 849 850 851 851 851 851 851 850 850 849 848 847 846 845 845 845 845 844 844 843 842 841 840 839 837 836 835 834 833 832 831 830 829 828 827 827 826
847 847 846 846 845 845 845 844 845 845 845 845 845 845 846 846 846 846 845 845 845 846 846 846 847 847 847 846 846 845 845 847 848 848 848 848 848 848 848 848 849 849 850 850 850 850 850 851 851 852 852 853 852 851 851 851 850 850 849 848 848 848 848 848 848 847 846 845 844 842 841 840 839 838 836 835 834 833 832 832 831 830 829 828 827
847 846 846 845 845 845 845 845 845 846 846 846 846 846 847 847 847 847 846 846 847 847 847 846 846 847 847 847 846 846 847 848 849 849 849 848 848 848 848 848 849 850 851 851 851 852 852 853 853 853 853 853 852 852 851 851 851 851 851 851 851 851 851 851 850 849 848 846 845 844 842 841 840 839 838 837 836 835 834 833 832 831 830 829 828
847 846 846 846 845 845 845 845 845 845 845 846 846 846 846 846 847 847 846 847 847 847 847 846 846 847 847 847 847 847 848 848 849 849 849 849 849 849 849 850 850 851 852 853 853 853 853 854 854 854 854 853 853 853 852 853 853 853 853 853 853 853 853 852 851 850 848 847 846 844 843 842 841 840 839 838 837 836 835 834 833 832 831 830 829
846 846 846 845 845 846 846 845 845 845 845 846 846 846 846 845 846 846 846 846 847 847 847 847 847 847 847 848 848 848 848 849 849 850 850 849 850 850 851 851 852 853 854 854 854 854 854 854 854 854 854 854 854 854 854 855 855 854 854 854 854 853 853 852 851 850 849 848 846 845 844 843 842 841 840 839 838 837 836 835 834 833 832 831 830
846 846 846 846 845 845 845 844 844 845 845 845 845 845 845 845 845 845 846 846 847 847 847 847 847 848 848 849 849 849 849 849 850 850 850 850 851 852 853 853 853 854 854 855 855 855 855 855 855 856 855 856 856 856 856 856 855 855 855 854 854 853 852 852 851 850 849 848 847 846 845 844 843 842 841 840 839 838 837 836 835 834 834 833 832
846 846 845 845 846 845 844 844 844 844 844 845 845 845 845 845 845 845 845 846 847 847 847 848 848 849 849 849 849 850 850 851 851 852 852 852 852 853 853 854 854 854 854 855 855 856 856 856 857 857 857 857 857 856 856 856 855 855 854 854 853 853 852 851 851 850 849 849 848 847 846 845 844 843 842 841 840 839 838 837 836 836 835 834 833
847 846 845 844 845 846 845 843 843 844 844 844 845 845 845 845 846 846 846 847 847 848 848 849 849 850 850 850 850 851 852 852 852 853 853 853 853 853 853 853 854 854 854 855 856 856 856 857 857 858 858 857 857 856 856 855 855 855 854 853 853 852 852 851 851 850 849 849 848 848 847 846 845 844 843 842 841 840 839 838 838 837 836 835 834
846 846 845 844 845 846 845 844 843 844 843 844 844 845 845 845 846 847 847 847 848 848 849 849 850 851 851 851 851 852 852 853 853 853 853 853 853 853 854 854 854 855 855 856 856 856 857 857 858 858 857 857 856 856 856 855 855 854 854 853 853 852 852 851 851 850 850 849 849 848 847 846 845 845 844 843 842 841 840 839 839 837 836 836 835
846 846 845 844 844 845 845 844 843 843 843 843 844 844 845 846 846 847 847 848 848 849 849 850 851 851 851 852 852 852 852 853 853 853 853 853 854 854 855 855 856 856 856 857 857 857 857 857 858 857 857 856 856 856 855 855 854 854 853 853 852 852 852 851 851 851 850 850 849 848 848 847 846 845 844 843 843 842 841 840 839 838 837 836 835
845 846 845 844 843 844 844 844 843 842 843 843 843 844 845 846 846 847 848 848 848 849 850 850 851 851 852 852 853 853 853 853 853 853 854 854 855 855 856 856 857 857 857 857 857 857 857 857 857 857 857 856 856 855 855 854 854 853 853 852 852 852 851 851 851 851 850 849 849 848 848 847 846 846 845 844 843 842 842 841 840 839 838 837 836
845 845 844 843 843 843 843 843 843 842 842 842 843 843 844 845 846 847 848 848 849 849 850 850 851 851 851 852 853 853 853 853 854 854 855 855 856 856 857 857 857 857 857 857 857 858 857 857 857 857 856 856 855 855 854 854 853 853 852 852 852 851 851 851 851 851 850 849 849 848 848 847 847 846 845 845 844 843 842 842 841 840 839 837 836
844 844 843 843 843 842 842 843 842 842 841 842 842 843 844 844 845 845 846 847 848 849 849 850 851 851 851 852 853 853 854 854 854 855 855 856 856 856 857 857 857 857 857 857 857 857 857 857 857 856 856 856 855 855 854 854 853 853 852 852 851 851 851 851 851 851 850 850 849 849 848 848 847 846 845 845 844 844 843 842 841 840 839 838 837
843 843 843 843 843 842 842 842 842 841 841 842 842 842 843 844 844 844 845 846 847 848 849 850 850 851 852 852 853 854 854 855 855 855 856 856 856 856 856 856 856 857 857 857 857 857 857 857 857 856 856 856 855 855 854 854 853 853 852 852 852 851 851 851 851 851 850 850 849 849 848 848 847 846 845 845 844 844 843 842 842 840 839 838 838
Wind_Speed
18 25 25 22 21 22 25 25 23 24 26 27 26 25 25 27 27 26 25 24 22 20 19 18 16 15 16 16 15 14 12 11 12 12 11 10 10 10 10 11 11 11 11 10 10 12 13 13 14 14 12 12 15 16 17 15 15 17 15 15 11 5 13 24 17 12 18 22 21 20 18 18 16 16 17 17 17 16 14 13 14 15 16 17 16
23 25 25 24 22 21 23 24 23 24 26 28 27 25 26 28 27 26 25 22 21 19 18 19 16 15 16 15 15 14 11 10 11 12 11 9 10 11 10 11 11 11 11 11 11 11 11 11 14 14 12 12 14 15 16 15 14 16 16 15 12 7 12 21 19 16 18 21 22 22 21 19 17 17 19 18 17 18 16 14 14 15 16 16 16
21 22 25 25 23 21 22 24 23 24 27 28 27 26 28 27 25 24 22 20 20 18 18 18 16 16 16 14 14 13 11 10 10 11 10 8 10 11 9 10 11 11 13 12 12 12 10 10 13 14 12 11 13 13 14 15 14 16 16 15 15 9 9 17 19 19 21 22 24 25 23 20 17 17 18 17 16 17 17 16 15 15 16 17 17
21 22 23 25 26 23 22 25 25 24 27 28 28 28 28 25 23 21 19 19 20 19 18 18 16 16 15 13 14 14 12 11 9 10 10 9 10 9 7 9 11 11 12 11 12 13 11 11 13 14 13 12 12 12 13 13 13 15 16 15 16 11 9 17 22 22 24 23 24 26 24 21 18 17 18 18 17 17 17 16 16 17 17 18 19
19 23 20 20 23 21 21 26 26 26 26 26 29 31 27 25 23 20 20 20 20 19 18 16 16 15 14 14 15 14 12 10 9 9 10 8 8 7 7 9 10 9 8 8 12 13 11 11 12 13 14 13 12 11 12 13 12 14 14 15 17 13 10 17 22 23 27 27 25 25 23 21 20 19 21 21 20 20 20 19 19 18 19 20 20
12 18 19 19 21 22 24 25 24 25 24 20 26 31 28 26 23 22 22 21 20 20 18 16 15 14 14 16 17 14 11 9 8 10 10 8 8 8 7 8 9 9 8 9 12 12 9 8 8 10 13 14 13 11 12 13 14 14 13 15 16 13 12 19 23 24 27 28 27 26 24 23 21 21 23 24 23 23 24 24 23 21 21 22 22
7 11 16 20 22 26 29 24 18 22 24 18 24 32 29 26 25 22 21 20 21 21 18 16 15 13 15 19 17 14 12 9 8 11 11 9 8 9 9 8 9 8 8 10 12 10 7 5 5 8 11 12 13 10 10 13 15 14 13 14 13 10 15 23 25 25 26 25 25 25 25 24 22 22 24 26 25 24 24 26 26 25 25 25 26
10 11 14 20 22 25 29 23 15 20 24 20 23 31 28 26 25 22 20 20 21 21 17 16 16 15 17 19 18 16 13 10 10 12 11 9 9 10 9 8 8 9 9 9 10 9 6 4 4 6 9 12 12 9 8 12 14 11 10 12 11 11 19 25 24 24 25 23 22 23 25 25 23 22 21 25 27 25 25 27 27 27 26 26 28
7 10 14 20 23 22 23 22 17 19 24 22 24 29 28 26 24 21 20 20 19 18 17 16 17 18 20 20 19 17 15 13 12 11 10 11 10 9 8 6 6 7 8 8 8 7 7 6 5 6 9 10 10 7 6 9 10 7 6 9 12 14 19 21 22 24 24 22 21 21 22 24 24 22 20 24 28 27 27 29 28 27 26 27 29
7 15 18 20 21 19 20 22 17 16 22 24 22 25 26 24 22 22 21 20 18 17 17 17 19 21 22 21 20 18 16 14 14 12 12 12 11 8 7 6 4 3 5 8 10 9 8 8 8 8 9 9 8 7 7 7 6 6 6 7 9 12 13 12 14 19 19 17 18 18 19 22 25 25 23 24 25 26 28 30 30 28 26 26 27
6 9 18 22 21 20 21 23 19 17 23 24 22 24 25 23 23 22 20 20 18 17 19 21 22 22 22 20 19 18 16 14 13 13 12 12 11 9 6 6 6 3 2 7 10 11 10 9 9 8 8 8 7 6 6 6 5 5 6 7 7 8 8 7 6 7 7 7 8 10 13 17 21 24 26 26 24 23 23 27 31 31 27 23 21
23 15 9 17 23 24 24 24 22 21 24 25 24 26 25 23 22 20 19 22 21 19 21 23 23 21 20 19 18 16 15 13 12 12 12 12 12 9 7 5 5 4 5 7 11 12 12 12 11 10 9 7 7 6 5 4 3 3 3 4 3 3 3 2 1 1 0 1 1 1 3 5 8 12 17 20 21 20 18 19 25 28 28 26 24
29 27 21 15 19 25 27 25 23 22 21 20 23 26 26 24 24 22 23 25 24 23 23 22 21 20 18 17 16 15 13 12 11 11 10 11 12 10 8 6 4 5 9 11 11 12 13 15 14 12 10 8 7 6 5 3 2 2 1 1 2 2 2 4 4 5 6 7 7 6 4 4 5 5 4 6 11 15 18 22 26 28 27 26 26
32 30 27 23 18 21 25 25 24 23 21 20 22 26 27 26 27 26 26 25 24 23 22 21 21 19 17 16 16 15 13 11 10 10 9 9 9 9 9 10 9 11 14 15 13 11 12 14 14 12 9 8 6 5 5 4 3 2 1 1 1 1 2 3 5 7 9 10 12 13 12 11 12 11 9 9 11 12 14 18 21 23 25 26 28
35 33 32 29 24 20 22 26 27 26 26 25 25 27 28 27 27 27 27 26 24 23 21 21 21 19 17 16 15 14 13 11 9 9 8 8 8 8 8 10 11 12 13 13 14 14 12 13 14 12 8 7 6 5 5 5 4 3 3 3 2 1 1 2 4 7 9 10 11 13 14 13 13 14 13 15 16 16 16 16 16 17 20 22 25
36 35 34 31 27 24 22 25 29 28 27 27 27 28 28 28 27 28 29 28 25 23 22 21 20 20 18 15 15 15 13 11 10 9 9 9 9 8 8 8 9 10 11 12 13 15 14 12 12 11 8 8 7 6 6 5 5 5 4 3 3 1 1 2 4 6 7 9 10 11 13 13 13 14 14 15 16 18 19 20 19 20 20 20 21
34 34 34 32 30 28 25 26 29 29 27 28 27 26 28 28 27 28 29 27 23 22 21 20 19 19 17 15 15 16 14 12 11 10 10 10 10 10 10 11 13 13 13 13 13 14 13 11 10 10 8 8 8 6 4 3 2 3 1 0 1 1 1 3 4 5 6 7 8 9 12 13 14 16 16 17 18 18 20 21 21 21 19 16 15
32 33 32 31 32 32 30 29 30 30 28 26 25 24 26 27 25 25 27 26 23 22 21 21 20 19 18 17 15 15 15 14 11 10 10 9 10 12 14 16 17 16 14 14 13 13 12 10 9 8 8 8 7 5 4 3 3 4 4 4 5 5 6 7 8 9 10 10 10 11 13 14 16 17 18 19 20 20 22 23 23 23 21 16 15
30 31 30 30 32 33 33 31 31 30 28 25 23 23 24 25 24 24 25 25 23 22 20 21 21 19 18 18 16 15 15 14 12 10 10 8 8 11 14 18 20 18 15 13 13 12 12 11 10 9 8 8 7 7 7 6 7 7 8 9 10 10 11 13 14 16 17 17 17 18 18 18 19 20 20 21 21 21 21 22 22 22 21 20 20
27 29 31 32 34 33 33 32 31 30 28 25 23 22 22 24 24 25 25 24 22 21 19 20 21 20 18 17 17 16 16 15 14 12 10 9 8 7 9 14 18 18 15 13 11 11 11 11 11 10 8 8 8 8 9 9 10 10 11 12 13 14 15 16 16 16 18 19 19 20 21 21 21 21 21 21 21 20 20 21 22 22 20 20 20
25 27 29 32 33 32 32 31 30 29 27 25 24 23 22 23 24 25 25 23 22 22 21 21 22 22 19 18 19 18 17 17 16 15 13 12 11 9 9 12 14 15 14 12 10 9 10 10 10 9 9 10 10 11 12 11 11 11 11 11 11 12 14 14 14 13 13 13 13 14 15 16 16 16 17 17 17 17 18 19 21 23 24 24 22
25 26 28 29 30 30 29 28 27 26 25 24 24 23 23 23 23 24 24 23 23 23 21 20 20 21 20 19 19 18 18 17 17 17 16 15 14 13 13 13 12 12 12 10 8 8 10 10 10 10 11 11 11 11 11 10 9 9 9 9 10 10 11 11 11 10 10 10 11 12 13 14 15 16 16 17 17 17 17 18 18 19 21 23 22
27 28 28 29 29 28 28 28 27 26 24 22 21 20 18 17 18 19 19 19 20 20 18 18 18 20 21 21 20 18 18 17 17 17 17 16 15 14 14 13 11 10 10 9 7 6 8 9 9 9 9 10 10 11 11 12 13 13 13 13 13 13 12 11 10 10 10 10 10 11 13 14 16 17 18 19 20 20 19 19 19 18 18 18 18
28 29 28 28 28 26 25 25 25 25 24 23 21 21 19 16 15 15 14 13 13 15 16 16 16 19 21 22 20 18 16 16 16 17 17 16 14 12 12 12 10 9 10 10 9 8 8 8 9 10 11 12 12 12 13 14 15 15 15 15 15 16 16 14 12 12 12 11 9 9 11 13 15 16 18 19 20 20 19 20 19 19 18 16 14
24 27 28 28 27 25 23 22 22 22 21 21 21 21 20 19 20 19 17 15 15 15 16 15 15 17 20 20 18 16 14 13 14 15 15 14 11 10 9 9 9 9 10 10 10 9 9 9 11 12 13 13 13 13 14 15 15 15 15 15 16 17 18 17 16 15 13 9 8 9 11 14 15 17 18 18 19 19 19 19 18 17 15 13 11
22 22 23 23 24 24 24 23 21 20 20 20 19 18 17 17 19 20 19 19 21 21 22 22 20 19 18 17 16 14 12 11 12 13 14 13 12 10 8 7 8 10 10 10 11 11 11 12 12 13 14 14 14 14 15 15 15 15 15 15 15 16 17 17 18 17 12 9 11 12 13 15 16 16 17 17 17 18 19 18 17 15 13 11 10
16 17 17 17 18 18 20 20 19 18 18 19 18 17 15 15 16 19 19 20 20 20 21 23 23 21 18 15 13 12 12 11 12 13 14 13 12 10 9 9 10 11 12 13 14 15 15 14 13 14 15 16 16 16 15 15 16 16 17 16 16 17 17 16 16 16 14 12 13 14 13 14 15 16 17 17 17 18 19 18 16 16 14 12 11
11 11 12 12 12 12 12 15 17 17 17 17 17 15 15 14 15 17 17 17 16 15 15 17 19 18 15 13 11 11 13 13 14 15 14 13 12 12 11 12 13 13 14 15 16 17 16 16 17 18 18 17 17 16 16 16 16 17 17 16 16 16 16 16 16 17 17 15 13 13 14 15 14 14 16 18 19 21 23 21 18 16 15 13 13
12 10 10 10 11 10 8 9 12 14 16 17 17 16 15 14 15 16 16 16 15 12 11 13 14 12 11 11 11 12 14 15 15 15 15 15 15 14 13 14 14 15 16 16 16 17 18 19 20 20 20 19 19 18 18 17 16 16 17 17 17 17 18 18 19 19 19 17 14 14 14 13 13 13 14 16 18 21 23 22 20 17 15 13 15
11 10 10 10 10 10 8 6 6 9 13 15 16 16 15 16 17 17 16 16 16 14 13 13 13 11 10 11 12 13 14 15 15 16 17 17 17 16 16 16 16 16 17 17 17 18 19 20 20 21 21 21 21 20 20 19 18 18 17 17 18 18 19 20 20 20 18 15 14 13 12 11 11 12 12 13 15 17 19 19 19 17 15 14 13
9 9 9 10 9 9 9 8 4 6 9 12 13 15 15 15 16 16 16 16 16 16 16 15 14 12 11 11 12 13 13 14 15 16 16 16 16 16 15 15 16 17 17 17 18 18 19 20 21 21 20 21 21 21 20 20 20 19 18 18 18 19 20 21 21 20 16 13 11 11 11 12 12 12 11 11 13 15 16 17 18 17 15 13 11
10 9 8 9 10 10 11 13 11 7 6 7 8 10 13 14 14 14 15 16 16 17 17 17 16 15 14 13 12 12 13 13 14 14 14 13 13 13 12 13 15 17 16 17 19 20 19 21 22 21 21 21 20 20 20 19 19 19 18 19 19 20 20 20 19 17 14 12 11 12 13 14 14 13 12 12 12 14 15 16 17 16 14 13 9
10 10 9 10 11 11 10 11 15 14 10 6 4 3 6 9 11 12 13 14 16 16 17 18 17 17 16 15 14 14 14 14 13 13 13 12 10 9 11 13 15 16 16 18 21 20 19 20 21 20 20 20 19 19 19 19 18 18 19 20 20 20 20 20 19 17 17 16 14 14 14 14 14 14 13 12 12 12 13 14 15 13 11 9 6
8 9 13 14 13 12 9 7 10 14 13 11 10 6 1 4 6 9 12 14 14 15 17 18 18 18 18 17 15 15 14 13 13 13 12 12 10 9 11 14 15 15 15 17 19 19 18 19 19 19 18 18 18 18 18 19 19 18 18 19 19 19 19 19 19 19 18 18 18 17 16 16 15 14 14 13 12 12 11 11 11 10 7 4 2
9 10 13 13 11 12 10 5 7 12 11 8 11 13 10 5 2 5 8 11 13 14 17 18 17 16 16 15 14 13 12 13 15 14 13 12 12 13 14 16 17 16 15 16 17 17 16 16 17 17 16 17 17 17 17 18 18 18 18 17 17 17 18 19 19 19 19 20 20 20 18 17 16 15 13 12 12 12 11 10 9 8 7 6 6
9 10 13 11 8 10 10 5 5 10 9 6 10 14 14 14 10 3 8 10 12 15 17 17 15 14 13 11 10 10 10 12 15 16 14 12 12 13 15 17 18 17 16 15 16 16 15 15 15 15 16 16 16 16 16 16 16 16 16 17 16 16 18 19 19 19 19 19 19 18 17 16 15 14 12 12 12 11 10 10 10 10 9 8 7
7 9 12 10 7 8 9 7 5 7 7 8 10 12 12 16 15 10 9 9 12 15 17 15 13 13 11 10 9 7 6 8 12 14 14 12 10 11 14 16 16 16 15 14 16 17 17 16 14 13 13 13 14 13 13 14 15 16 16 17 17 17 17 18 17 16 16 15 15 15 14 14 14 13 12 13 13 12 10 10 11 11 9 8 8
7 6 8 10 8 6 7 5 4 5 5 7 9 10 12 15 16 15 16 14 15 17 16 13 12 12 10 10 11 9 8 9 10 11 12 12 12 12 12 12 13 14 13 12 13 15 15 15 14 12 11 11 11 11 11 11 13 15 16 17 17 16 15 14 12 11 12 12 12 13 13 13 13 13 13 14 14 13 12 11 11 11 10 9 10
8 5 6 8 8 5 4 4 4 4 6 8 9 10 13 15 14 15 18 19 19 18 16 14 12 11 9 10 13 14 14 13 11 11 12 13 13 13 12 11 11 11 10 9 11 12 12 11 11 10 9 8 8 10 9 10 12 13 13 15 15 13 12 11 10 10 11 11 11 11 11 11 12 12 12 13 13 13 12 12 12 11 11 10 10
7 7 7 8 7 6 6 6 8 9 10 11 11 10 12 14 13 13 15 17 16 15 14 14 14 12 11 11 13 16 16 16 14 13 12 12 12 12 12 11 10 9 8 9 9 9 8 7 7 7 7 8 10 10 9 9 11 11 10 10 11 10 10 11 11 11 12 13 13 12 12 11 11 11 12 12 12 11 11 11 11 11 10 10 9
6 6 7 7 6 6 6 9 9 8 7 7 7 7 10 11 10 10 11 13 13 12 12 14 15 13 12 11 12 14 15 16 16 15 13 12 11 11 10 10 8 7 8 9 8 7 6 5 6 7 7 10 13 12 9 7 7 6 5 5 7 8 9 9 10 11 12 13 14 14 13 13 12 12 12 12 12 12 12 11 11 11 11 10 10
6 7 7 8 9 7 2 8 9 7 6 6 4 4 7 8 8 8 8 9 10 9 10 12 14 13 12 11 11 12 13 12 13 14 13 13 12 10 9 8 6 6 8 9 8 8 8 8 8 8 7 9 11 11 9 7 5 4 4 4 5 6 7 8 8 9 10 11 12 13 12 12 12 12 12 12 11 12 12 11 11 11 12 11 11
7 7 7 10 12 7 3 7 7 6 6 4 2 3 5 7 7 8 7 7 8 10 10 12 13 14 13 12 10 10 11 10 9 9 10 9 8 8 7 5 3 3 6 8 8 7 7 8 8 7 6 6 5 5 4 4 3 3 4 4 4 5 5 5 5 6 7 8 10 11 11 11 11 11 12 12 12 11 11 12 11 11 11 12 11
6 7 9 11 11 2 8 7 5 6 6 5 4 4 5 6 7 7 7 6 8 11 12 12 11 12 13 13 11 10 11 11 8 6 6 5 4 4 4 2 2 3 7 9 7 6 6 6 5 4 4 2 2 1 2 1 1 1 1 2 2 3 4 4 4 5 7 7 8 9 10 10 10 10 10 11 11 11 11 12 12 11 11 11 11
5 8 10 11 9 2 8 8 6 7 8 8 7 7 5 5 5 5 5 5 6 9 11 10 8 8 10 11 11 10 11 12 10 7 5 4 3 2 3 3 4 5 7 8 7 5 5 6 6 5 3 2 3 1 2 3 2 1 1 2 1 2 3 4 4 5 6 6 6 8 8 8 8 8 8 9 10 10 11 11 10 11 12 12 11
6 8 7 7 9 5 7 11 9 8 9 8 7 8 7 5 4 5 6 5 4 7 8 7 5 5 6 7 8 8 8 10 9 7 7 6 4 4 3 4 6 7 7 7 6 5 4 5 6 5 2 1 2 2 2 2 1 2 3 2 1 1 1 2 3 3 4 4 5 6 6 7 7 7 8 8 8 8 9 10 9 11 12 11 10
7 6 5 7 11 9 5 12 12 9 9 9 7 8 8 7 4 4 5 5 5 5 5 3 3 4 6 6 6 6 6 6 5 6 7 7 6 5 6 6 7 8 8 8 7 6 5 5 5 4 2 2 3 3 2 2 3 4 3 2 1 1 3 1 1 2 3 5 6 5 4 6 7 7 8 9 7 7 8 9 8 9 11 11 10
6 6 7 10 11 11 4 11 16 12 9 9 8 9 10 8 5 3 4 6 6 5 6 7 8 8 7 6 3 3 3 3 3 5 7 7 6 6 6 7 7 8 7 7 7 6 5 4 4 3 2 3 3 3 4 4 4 3 3 2 1 2 3 3 2 2 4 5 4 2 3 5 6 6 7 8 8 7 9 10 9 9 10 11 11
5 6 7 7 7 9 8 7 15 12 7 9 11 11 11 10 7 5 5 6 7 6 7 9 10 8 5 4 3 2 2 2 5 6 5 6 6 6 5 6 7 6 5 5 6 6 5 4 2 1 2 3 3 3 3 3 3 3 2 2 1 1 2 2 1 2 5 4 3 3 3 4 5 6 6 6 6 6 8 10 10 10 10 11 12
8 7 6 4 5 8 9 4 12 12 9 10 13 13 12 11 9 8 8 8 8 9 9 9 8 5 3 4 7 5 1 1 6 8 6 4 5 4 4 5 6 5 4 5 5 5 4 2 1 4 4 4 4 4 5 5 4 4 3 2 1 0 1 2 1 3 5 4 3 3 3 4 5 6 6 5 4 5 7 9 11 10 9 9 10
8 7 5 4 5 7 9 5 6 12 12 12 12 14 14 13 12 11 10 8 8 10 10 9 8 6 5 6 8 7 4 3 5 7 5 3 2 3 3 5 5 4 4 6 5 3 2 1 2 4 4 5 5 5 5 6 5 5 4 3 2 1 1 2 1 2 4 3 2 3 3 4 5 5 6 6 5 5 7 9 11 11 9 8 8
Wind_Direction
210 216 221 221 214 206 201 197 194 191 189 186 179 174 175 170 162 161 159 158 160 161 162 163 161 159 158 157 155 153 155 154 150 151 153 151 151 154 158 167 176 176 177 185 187 190 197 197 194 196 202 201 195 196 198 196 198 200 205 202 187 172 180 170 150 144 170 181 184 183 185 183 182 190 190 187 190 190 187 192 200 199 195 194 192
206 209 211 216 217 212 205 196 192 192 188 183 178 174 168 161 156 156 156 157 160 160 163 165 162 160 157 154 153 150 150 151 147 149 154 155 159 160 160 165 171 173 172 175 181 187 193 192 192 197 202 199 194 197 199 192 190 197 204 206 198 182 176 172 155 142 158 174 179 178 182 187 187 189 191 191 191 191 191 195 204 209 205 204 204
204 205 206 209 211 211 207 200 195 192 185 180 178 171 161 156 155 155 155 156 159 161 163 164 161 159 158 156 154 150 146 147 148 153 153 152 159 164 170 174 176 180 177 176 180 183 186 184 187 193 196 196 195 197 198 191 185 190 195 199 202 197 186 182 169 154 158 169 176 177 179 187 194 191 192 197 197 196 200 202 204 210 213 216 219
204 205 205 205 206 208 207 202 197 192 188 182 175 166 156 154 156 156 153 155 160 163 162 161 161 160 161 161 155 147 145 150 153 153 149 147 155 162 170 174 177 180 180 183 186 182 177 179 185 191 192 194 198 200 199 192 186 188 192 196 201 204 196 189 184 172 164 167 178 183 182 187 198 198 195 199 203 204 208 211 212 217 223 227 231
207 205 203 194 196 206 208 203 199 194 191 182 169 161 155 154 155 154 153 158 164 163 160 162 164 163 166 162 152 143 142 151 153 146 146 151 156 153 148 152 159 160 158 171 180 176 172 178 186 192 193 195 198 201 204 200 193 191 195 199 202 210 208 196 192 183 173 171 178 184 185 188 195 202 202 200 200 205 211 216 220 225 231 235 240
211 201 201 189 188 200 203 204 205 194 187 179 164 157 154 153 152 153 158 163 164 159 159 162 160 158 160 154 145 139 141 154 159 148 146 153 159 161 156 151 151 145 132 140 158 166 168 173 182 191 197 197 193 196 207 208 203 200 205 207 207 219 221 201 191 182 177 177 180 184 188 189 191 201 208 207 203 204 209 216 224 230 233 235 240
262 222 212 195 190 196 196 200 204 188 186 184 163 154 152 151 152 155 162 165 159 156 157 158 155 155 154 148 144 144 147 149 146 142 146 148 149 153 154 150 147 142 136 139 146 149 147 151 173 192 197 190 182 189 209 208 204 206 208 203 204 220 213 196 185 179 178 178 178 184 192 194 194 200 209 212 211 209 209 212 219 228 232 235 237
278 256 223 201 197 198 195 196 190 181 189 188 161 152 151 152 154 157 160 157 153 154 155 154 154 154 149 145 145 147 147 137 126 135 148 145 134 139 141 133 127 126 127 133 135 131 124 123 148 178 186 183 180 187 204 203 203 209 210 206 216 214 193 184 183 184 184 183 181 188 197 200 201 204 205 204 206 211 213 211 216 224 227 233 238
252 240 218 205 203 200 197 197 188 177 181 172 153 149 149 152 157 157 153 152 151 154 154 150 147 143 138 137 138 140 138 127 119 123 137 138 131 133 138 129 124 130 134 134 133 130 126 115 117 148 171 178 179 175 172 186 196 196 198 212 220 205 182 177 186 191 190 191 191 191 195 200 205 208 202 199 205 217 221 218 221 225 225 230 236
210 209 204 203 203 196 191 192 185 172 168 161 152 151 149 148 152 151 150 153 154 154 152 145 139 136 132 129 129 130 126 120 116 113 119 130 132 130 128 118 118 159 163 145 139 135 128 114 111 137 162 166 162 157 152 163 167 147 147 167 176 174 163 157 175 185 188 195 200 198 198 201 206 209 209 209 215 223 224 221 224 229 229 230 234
48 190 189 189 190 185 182 183 177 163 159 158 158 155 147 141 141 144 145 145 146 147 144 138 134 131 129 126 123 123 122 119 118 115 112 122 131 133 124 108 105 107 141 149 148 140 130 121 115 126 152 164 163 163 164 165 152 129 134 146 144 149 148 128 128 154 164 173 189 201 207 208 210 214 219 222 222 223 224 225 228 230 229 229 233
37 46 112 154 159 161 166 168 165 159 155 156 157 150 142 136 137 138 135 134 138 141 136 131 128 126 125 124 120 119 121 120 122 123 120 119 120 121 124 126 123 94 83 130 154 148 133 123 116 116 129 146 156 164 173 179 177 153 132 140 144 147 162 158 104 47 27 54 101 181 207 216 221 223 227 231 233 236 241 243 239 234 230 229 230
38 42 56 87 122 139 148 150 153 155 152 150 147 140 135 133 133 134 131 131 133 133 129 126 124 122 122 121 118 118 121 123 128 134 135 126 115 106 103 110 130 106 91 106 133 144 136 127 122 122 125 131 136 147 160 161 175 201 190 159 192 223 246 255 271 284 290 296 297 293 288 282 283 279 262 253 253 253 255 256 253 245 237 234 235
37 40 47 53 74 113 132 136 138 142 141 137 132 129 127 126 126 130 131 129 127 125 124 123 119 117 119 119 118 116 112 114 125 138 149 144 126 109 91 85 99 106 99 97 105 120 133 138 137 135 133 135 134 141 159 154 127 111 84 52 18 320 299 285 282 282 285 288 289 289 290 290 288 285 284 284 281 275 268 265 261 256 252 251 252
39 36 43 47 51 76 108 121 123 125 129 130 125 122 123 123 124 126 125 123 122 121 119 117 114 113 115 119 119 110 101 101 110 122 136 143 138 126 101 85 89 97 96 95 96 105 122 140 143 137 129 127 123 122 145 159 150 120 99 80 51 359 316 299 287 280 280 284 288 289 290 291 288 283 279 277 276 278 280 279 278 277 276 272 267
48 39 40 43 46 55 76 99 109 111 115 118 116 116 120 122 123 124 121 117 118 117 113 111 109 108 109 113 113 104 94 93 98 102 110 121 128 126 110 93 88 90 94 96 99 105 114 123 126 122 113 103 96 95 111 136 150 143 130 109 80 48 265 254 268 270 270 271 275 279 281 282 282 281 280 279 279 279 280 279 277 278 279 275 271
51 47 42 40 46 52 59 75 92 100 102 103 103 107 114 117 118 121 120 116 115 114 111 107 106 104 102 102 101 97 90 85 90 99 103 108 113 110 101 96 94 93 94 98 105 109 107 104 104 104 98 88 78 75 84 103 125 124 121 98 33 332 260 242 249 257 266 270 271 274 277 280 283 284 284 287 291 293 292 290 287 285 284 280 277
50 51 48 45 49 53 55 61 76 86 91 92 95 99 106 110 112 113 115 114 111 112 111 107 103 99 96 92 89 89 86 80 81 95 100 101 101 97 94 95 94 89 88 92 99 104 101 95 90 84 78 71 61 51 45 30 18 17 1 339 328 316 306 299 288 282 281 282 281 282 283 285 288 289 290 291 296 301 303 302 299 296 292 286 283
50 52 52 52 55 57 57 57 64 73 78 83 90 96 100 106 110 109 109 109 108 109 109 106 99 92 87 84 79 78 79 75 73 84 92 94 95 93 93 93 89 84 84 88 91 93 89 81 75 69 62 55 46 35 28 21 12 7 357 346 339 330 325 322 315 308 303 300 299 298 297 297 298 298 298 296 298 304 308 309 307 300 291 282 281
53 56 56 56 57 58 59 59 60 66 71 76 84 90 95 101 105 104 103 104 104 102 100 97 92 85 78 76 74 71 72 70 68 70 76 77 79 85 88 85 83 84 85 85 87 86 78 67 60 52 42 33 25 17 13 8 1 354 346 338 334 328 323 322 321 319 316 312 311 309 307 306 307 308 307 305 305 306 306 306 307 303 293 286 283
56 57 57 58 58 58 59 59 59 62 67 71 75 79 84 87 91 94 97 98 97 94 89 86 84 80 76 77 75 70 67 68 65 62 64 65 62 65 71 72 79 90 93 89 84 72 56 44 35 24 13 7 2 359 356 352 349 346 340 334 331 326 324 325 326 327 327 324 325 326 325 325 326 327 327 327 328 326 318 309 307 303 296 291 287
57 57 57 58 60 61 60 59 60 62 64 66 68 69 70 72 76 84 90 91 91 91 89 89 90 90 88 84 80 73 68 67 65 60 58 59 58 60 65 70 80 95 99 93 80 52 35 27 17 6 0 1 3 4 6 11 17 17 11 4 355 347 344 347 350 354 1 3 2 0 358 356 355 353 350 346 345 343 336 326 319 312 303 294 287
56 58 59 59 61 62 61 60 62 64 66 68 69 69 69 70 74 80 87 92 96 101 106 109 110 108 103 95 87 80 74 70 68 61 53 51 54 58 65 71 78 88 91 84 67 37 25 23 21 20 23 32 41 44 45 46 43 37 30 22 16 11 5 1 5 13 15 11 7 10 8 1 353 349 343 338 337 339 340 338 332 325 317 304 288
55 55 58 61 62 61 59 57 58 61 64 66 67 69 73 77 78 80 88 96 103 114 124 130 129 122 112 101 91 84 77 72 67 60 53 50 54 63 73 77 77 80 80 75 63 44 32 33 46 59 63 63 62 57 52 49 45 42 39 34 31 28 22 16 14 8 0 358 4 11 8 358 348 344 338 332 330 329 333 338 335 324 317 307 286
54 52 54 58 61 62 60 56 54 57 59 58 56 58 64 71 74 79 83 82 82 90 99 109 125 129 118 105 94 86 80 71 60 51 48 48 51 60 71 75 71 67 65 63 55 45 44 59 73 74 68 63 61 59 56 54 51 47 41 35 32 31 29 26 20 10 2 7 16 10 359 352 347 343 336 330 326 325 329 338 338 318 298 285 272
56 56 57 58 57 58 58 54 51 52 54 54 50 49 53 62 69 76 79 77 77 80 81 84 99 115 115 105 96 86 76 64 51 43 41 40 39 46 57 61 57 54 57 62 61 59 68 77 75 68 65 63 61 58 55 49 43 37 31 28 28 28 26 24 20 18 16 12 2 354 349 347 344 341 339 336 334 333 334 339 339 319 289 268 263
59 60 64 64 62 61 61 59 58 55 52 52 51 48 49 56 63 67 68 69 72 76 78 79 87 99 103 97 88 78 68 60 53 47 42 40 40 46 54 56 56 60 65 70 69 67 69 69 65 66 74 73 65 59 54 48 42 39 37 35 35 33 30 27 24 23 17 2 347 342 343 346 346 347 350 351 349 346 343 340 336 325 306 283 270
56 56 60 63 65 68 69 69 72 74 71 68 66 62 58 57 61 62 61 61 65 72 76 77 81 90 95 90 80 70 61 55 51 48 45 46 49 54 58 60 62 65 67 67 65 64 64 66 67 70 72 69 63 58 53 48 44 42 38 33 31 30 27 25 24 22 18 11 359 349 348 352 353 354 354 353 352 350 346 343 340 334 321 295 273
59 55 55 61 66 71 78 81 82 84 85 84 82 79 76 73 74 74 70 66 65 68 72 72 71 77 85 83 76 71 65 58 55 57 60 61 60 62 65 66 65 64 63 62 63 64 64 63 62 59 57 56 56 53 49 45 42 38 33 28 23 18 15 15 18 18 17 17 13 3 356 354 353 351 349 347 345 345 343 341 342 341 334 310 280
51 47 50 55 58 61 66 77 92 94 92 92 92 93 92 89 87 87 85 82 79 77 76 72 64 61 70 75 74 73 70 68 70 76 76 71 67 66 68 70 69 65 62 62 61 59 57 56 55 55 57 57 56 53 49 45 40 34 29 24 19 14 9 7 7 6 5 8 11 8 1 355 353 349 343 340 340 341 340 341 341 341 338 326 300
41 33 30 32 35 42 46 47 80 122 114 104 100 101 101 99 94 91 91 91 90 86 82 80 74 66 66 72 75 73 73 78 85 86 81 73 69 67 68 70 68 63 62 66 64 58 55 57 58 57 56 55 53 49 45 41 38 33 27 21 17 13 8 4 2 359 358 360 2 1 356 354 354 352 345 338 336 336 337 339 342 343 337 328 317
31 24 19 23 35 45 45 44 51 77 117 127 120 112 109 107 104 100 97 92 89 86 82 79 78 76 74 76 79 80 83 89 89 81 71 66 64 66 69 69 64 62 64 67 65 62 60 59 57 54 52 51 49 45 43 41 38 33 27 22 19 17 14 12 9 8 10 10 2 353 350 348 347 347 346 340 335 336 338 339 343 345 337 324 314
14 32 36 27 31 40 42 40 41 44 53 71 87 121 134 121 113 115 113 102 91 87 83 80 79 80 82 84 87 89 91 90 81 67 58 54 59 75 82 74 67 67 67 63 61 60 59 57 56 54 53 52 47 41 40 37 33 30 29 26 24 20 16 14 15 18 20 18 11 2 356 352 349 349 349 345 340 341 343 343 344 344 334 321 306
7 39 38 23 23 35 40 38 34 32 34 40 39 31 61 168 147 136 130 118 105 95 88 84 84 85 86 88 89 89 89 84 72 61 52 51 64 87 91 79 72 70 67 62 58 56 54 55 56 55 53 49 43 38 36 32 29 30 30 26 24 20 16 16 21 24 22 21 20 17 11 6 5 3 0 357 355 355 355 356 356 355 352 360 85
26 40 34 24 24 33 41 51 33 20 18 28 34 33 36 50 126 171 151 130 120 110 97 89 87 87 86 85 82 82 85 80 66 55 50 60 80 94 92 81 73 68 63 59 57 57 58 59 57 54 51 47 40 35 34 34 35 36 32 27 24 21 20 23 26 25 23 23 23 21 18 17 18 18 14 14 17 20 21 22 28 36 44 60 82
37 35 29 25 28 36 47 67 31 11 14 39 38 31 36 43 46 115 159 146 136 125 109 94 84 80 78 78 76 76 81 75 63 58 62 72 81 86 83 76 72 70 66 59 58 65 69 66 61 57 53 48 44 41 42 44 43 39 34 31 30 28 29 31 29 26 26 27 26 25 27 29 30 30 30 33 36 39 41 44 48 49 50 55 66
15 24 27 30 39 51 59 73 54 30 42 55 39 25 30 40 46 70 111 131 142 135 117 96 76 67 67 67 62 64 80 80 71 71 75 74 70 73 77 76 76 78 73 62 60 68 70 65 62 57 51 51 52 51 51 49 44 38 35 35 34 33 34 33 30 29 31 33 34 37 40 43 44 44 45 45 44 43 46 49 47 43 43 51 58
352 11 30 29 32 51 60 57 45 29 33 40 35 31 42 53 57 62 70 90 120 128 116 96 72 62 63 61 59 71 102 109 95 84 79 75 73 76 79 76 74 76 74 62 58 64 68 68 66 60 58 64 61 50 48 48 40 34 35 35 33 34 35 34 34 39 44 47 49 51 52 53 53 52 51 51 48 45 46 48 48 48 51 54 51
345 349 8 12 20 40 41 28 44 62 63 69 73 64 57 61 65 63 68 87 106 110 103 93 81 72 72 72 75 88 101 103 98 92 85 82 79 77 77 74 68 67 69 63 56 58 64 67 68 69 74 71 48 37 48 53 40 31 31 32 32 39 45 44 44 49 51 50 50 51 54 54 51 49 49 48 45 44 46 45 44 46 48 47 44
342 340 341 347 1 21 33 58 87 91 81 79 84 80 67 64 67 68 72 85 95 95 88 85 82 78 76 74 80 90 94 90 90 93 88 82 76 69 66 62 55 57 68 67 59 58 60 62 77 91 85 58 41 44 61 60 43 34 33 34 37 48 55 53 51 50 48 45 44 44 45 44 43 43 44 42 40 40 40 40 38 35 32 30 28
335 330 326 326 334 2 51 89 105 102 86 82 89 90 81 71 67 70 75 79 82 81 79 80 79 76 69 66 77 91 91 86 85 85 81 77 71 61 53 47 49 70 90 86 71 60 57 73 108 111 81 56 54 58 64 61 51 47 51 51 52 55 51 46 45 43 40 40 41 41 41 40 39 38 38 37 38 38 35 35 34 28 25 26 24
316 308 310 317 317 317 58 108 108 98 85 78 81 97 95 81 68 67 77 79 69 64 76 86 84 75 66 70 84 92 89 84 82 79 76 74 66 54 48 49 57 84 105 103 91 76 67 80 104 106 80 65 66 66 62 61 64 75 87 82 73 65 54 43 39 36 33 35 36 35 36 37 35 35 34 31 29 31 32 30 28 23 21 23 24
306 298 300 323 329 311 189 131 98 76 61 46 45 97 95 85 75 70 77 81 68 64 82 93 85 75 75 80 87 88 81 77 76 70 64 63 54 43 45 54 58 94 120 119 111 99 89 88 95 98 89 74 70 73 79 72 64 79 92 88 88 84 66 48 39 33 29 33 34 31 30 31 29 29 29 26 25 30 33 29 27 27 24 22 22
311 312 305 319 337 329 168 149 90 74 75 72 101 119 86 71 77 79 82 85 77 76 90 95 85 79 82 80 77 75 68 60 58 56 54 60 60 47 47 58 63 119 137 138 132 124 125 129 130 133 127 87 37 323 211 175 123 118 95 72 93 97 68 47 44 38 31 32 36 33 29 26 23 22 22 23 24 28 29 27 29 29 24 18 14
314 321 305 304 322 307 169 156 118 111 114 108 120 130 100 69 75 88 94 101 91 88 98 100 88 83 84 80 80 83 70 59 63 69 64 70 90 69 57 82 93 101 124 144 154 159 164 171 174 168 144 74 45 60 189 179 157 114 4 3 62 102 68 51 52 52 46 41 39 35 27 18 15 19 23 23 21 18 15 15 14 11 11 13 13
306 314 294 286 309 302 180 161 141 131 134 130 132 137 124 101 97 111 121 129 112 94 94 88 73 74 80 78 86 95 79 62 65 70 61 57 72 76 74 93 103 101 108 125 140 149 158 165 167 161 146 78 52 80 144 162 140 359 1 4 3 168 133 74 47 53 53 32 21 23 20 12 15 24 26 22 17 12 8 8 5 4 8 12 13
294 297 267 266 296 305 216 175 166 154 145 142 144 145 137 124 114 126 144 150 130 107 103 101 99 104 99 88 91 101 88 64 63 75 68 58 64 87 101 109 112 110 107 108 110 111 120 139 156 166 189 249 286 303 302 307 325 334 338 344 332 207 199 222 328 351 344 336 337 347 8 19 24 25 22 21 22 16 12 16 15 11 11 11 9
278 270 259 258 281 309 290 181 173 163 144 136 143 148 145 142 145 162 161 153 144 136 136 140 138 129 115 102 99 101 94 94 113 106 86 68 71 95 114 121 119 113 106 102 99 95 99 122 160 194 240 286 309 319 317 319 328 329 320 315 299 222 221 241 283 339 347 345 353 26 53 41 30 20 17 24 30 25 20 22 20 12 8 6 3
261 283 297 272 267 306 311 199 180 176 155 141 147 153 153 154 164 181 175 164 165 165 155 146 141 128 110 119 146 129 80 148 167 149 110 81 85 104 120 125 120 113 108 106 99 89 83 84 73 4 356 2 5 8 3 354 354 354 344 336 328 228 221 217 201 21 14 19 51 69 53 24 10 4 7 22 28 20 15 15 12 4 360 360 1
250 267 304 278 246 295 314 249 195 195 182 153 151 158 162 161 162 169 177 181 179 173 166 161 152 126 104 149 163 155 118 176 170 159 138 94 80 92 114 123 117 109 112 120 115 104 101 104 359 356 17 31 29 24 25 27 28 28 25 28 50 124 196 185 154 32 24 34 59 55 24 357 353 359 5 14 20 12 7 5 3 360 360 4 10
255 244 261 257 251 290 317 308 210 199 194 179 165 164 171 175 170 161 161 172 181 177 174 171 162 145 141 160 167 167 177 187 170 162 159 141 93 75 101 129 132 122 117 128 135 135 138 220 303 338 10 29 36 35 32 32 37 39 36 35 32 16 209 196 178 48 37 35 32 17 358 348 354 3 5 4 0 354 354 358 359 357 356 1 11